| time (UTC) | temp F | wind direction | speed MPH | gust MPH | rain 1hr in | rain 24hr in | rain mn in | humidity % | barometer mb |
| 20260509185031 | 54 | 234 | 0.0 | 8.0 | 0.00 | 0.02 | 0.01 | 82 | 1006.9 |
| 20260509184535 | 54 | 193 | 1.0 | 10.0 | 0.00 | 0.02 | 0.01 | 82 | 1007.0 |
| 20260509184029 | 54 | 251 | 1.0 | 10.0 | 0.00 | 0.02 | 0.01 | 82 | 1007.1 |
| 20260509183529 | 54 | 214 | 0.0 | 6.0 | 0.00 | 0.02 | 0.01 | 83 | 1007.2 |
| 20260509183037 | 54 | 207 | 1.0 | 12.0 | 0.00 | 0.02 | 0.01 | 82 | 1007.2 |
| 20260509182528 | 55 | 245 | 2.0 | 12.0 | 0.00 | 0.02 | 0.01 | 82 | 1007.2 |
| 20260509182031 | 54 | 228 | 0.0 | 9.0 | 0.00 | 0.02 | 0.01 | 82 | 1007.2 |
| 20260509181527 | 54 | 174 | 0.0 | 9.0 | 0.00 | 0.02 | 0.01 | 82 | 1007.1 |
| 20260509181030 | 54 | 214 | 0.0 | 10.0 | 0.00 | 0.02 | 0.01 | 83 | 1007.1 |
| 20260509180525 | 54 | 227 | 1.0 | 10.0 | 0.00 | 0.02 | 0.01 | 83 | 1007.1 |
| 20260509180026 | 54 | 248 | 0.0 | 7.0 | 0.00 | 0.02 | 0.01 | 84 | 1007.2 |
| 20260509175525 | 54 | 228 | 0.0 | 7.0 | 0.00 | 0.02 | 0.01 | 84 | 1007.1 |
| 20260509175028 | 54 | 211 | 0.0 | 7.0 | 0.00 | 0.02 | 0.01 | 84 | 1007.1 |
| 20260509174526 | 54 | 116 | 1.0 | 8.0 | 0.00 | 0.02 | 0.01 | 84 | 1007.2 |
| 20260509174023 | 54 | 189 | 0.0 | 8.0 | 0.00 | 0.02 | 0.01 | 85 | 1007.2 |
| 20260509173523 | 53 | 219 | 0.0 | 8.0 | 0.00 | 0.02 | 0.01 | 85 | 1007.2 |
| 20260509173022 | 53 | 136 | 0.0 | 12.0 | 0.00 | 0.02 | 0.01 | 85 | 1007.3 |
| 20260509172522 | 53 | 189 | 1.0 | 14.0 | 0.00 | 0.02 | 0.01 | 85 | 1007.2 |
| 20260509172019 | 53 | 193 | 4.0 | 14.0 | 0.00 | 0.02 | 0.01 | 85 | 1007.3 |
| 20260509171522 | 52 | 231 | 3.0 | 9.0 | 0.00 | 0.02 | 0.01 | 86 | 1007.4 |
| 20260509171018 | 52 | 220 | 0.0 | 2.0 | 0.00 | 0.02 | 0.01 | 87 | 1007.5 |
| 20260509170517 | 52 | 171 | 0.0 | 0.0 | 0.00 | 0.02 | 0.01 | 87 | 1007.5 |
| 20260509170026 | 52 | 217 | 0.0 | 8.0 | 0.00 | 0.02 | 0.01 | 87 | 1007.5 |
| 20260509165513 | 52 | 167 | 0.0 | 8.0 | 0.00 | 0.02 | 0.01 | 86 | 1007.5 |
| 20260509165012 | 52 | 169 | 0.0 | 4.0 | 0.00 | 0.02 | 0.01 | 87 | 1007.6 |
| 20260509164511 | 52 | 169 | 0.0 | 6.0 | 0.00 | 0.02 | 0.01 | 88 | 1007.6 |
| 20260509164014 | 52 | 183 | 0.0 | 6.0 | 0.00 | 0.02 | 0.01 | 88 | 1007.7 |
| 20260509163508 | 51 | 188 | 0.0 | 7.0 | 0.00 | 0.02 | 0.01 | 89 | 1007.7 |
| 20260509163010 | 51 | 231 | 0.0 | 7.0 | 0.00 | 0.02 | 0.01 | 89 | 1007.9 |
| 20260509162507 | 51 | 197 | 0.0 | 3.0 | 0.00 | 0.02 | 0.01 | 89 | 1007.9 |
| 20260509162010 | 51 | 185 | 0.0 | 3.0 | 0.00 | 0.02 | 0.01 | 89 | 1008.0 |
| 20260509161505 | 51 | 207 | 0.0 | 3.0 | 0.00 | 0.02 | 0.01 | 90 | 1008.0 |
| 20260509161003 | 50 | 119 | 0.0 | 4.0 | 0.00 | 0.02 | 0.01 | 90 | 1008.1 |
| 20260509160502 | 50 | 162 | 0.0 | 4.0 | 0.00 | 0.02 | 0.01 | 90 | 1008.1 |
| 20260509160002 | 50 | 146 | 0.0 | 3.0 | 0.00 | 0.02 | 0.01 | 90 | 1008.2 |
| 20260509155501 | 50 | 145 | 0.0 | 7.0 | 0.00 | 0.02 | 0.01 | 90 | 1008.3 |
| 20260509155100 | 50 | 174 | 1.0 | 7.0 | 0.00 | 0.02 | 0.01 | 90 | 1008.2 |
| 20260509154600 | 50 | 139 | 0.0 | 0.0 | 0.00 | 0.02 | 0.01 | 90 | 1008.3 |
| 20260509154101 | 50 | 150 | 0.0 | 1.0 | 0.00 | 0.02 | 0.01 | 90 | 1008.3 |
| 20260509153559 | 50 | 164 | 0.0 | 1.0 | 0.00 | 0.02 | 0.01 | 90 | 1008.4 |
| 20260509153102 | 50 | 155 | 0.0 | 1.0 | 0.00 | 0.02 | 0.01 | 90 | 1008.4 |
| 20260509152558 | 50 | 148 | 0.0 | 2.0 | 0.00 | 0.02 | 0.01 | 90 | 1008.5 |
| 20260509152057 | 50 | 169 | 0.0 | 2.0 | 0.00 | 0.02 | 0.01 | 90 | 1008.6 |
| 20260509151606 | 50 | 190 | 0.0 | 1.0 | 0.00 | 0.02 | 0.01 | 90 | 1008.7 |
| 20260509151100 | 50 | 133 | 0.0 | 4.0 | 0.00 | 0.02 | 0.01 | 90 | 1008.7 |
| 20260509150557 | 50 | 138 | 0.0 | 4.0 | 0.00 | 0.02 | 0.01 | 91 | 1008.7 |
| 20260509150057 | 50 | 145 | 0.0 | 0.0 | 0.00 | 0.02 | 0.01 | 90 | 1008.6 |
| 20260509145558 | 50 | 132 | 0.0 | 0.0 | 0.00 | 0.06 | 0.01 | 90 | 1008.7 |
| 20260509145054 | 50 | 178 | 0.0 | 1.0 | 0.00 | 0.06 | 0.01 | 91 | 1008.7 |
| 20260509144554 | 50 | 144 | 0.0 | 1.0 | 0.00 | 0.06 | 0.01 | 91 | 1008.7 |
| 20260509144052 | 50 | 155 | 0.0 | 7.0 | 0.00 | 0.06 | 0.01 | 91 | 1008.7 |
| 20260509143553 | 49 | 150 | 0.0 | 7.0 | 0.00 | 0.06 | 0.01 | 92 | 1008.7 |
| 20260509143050 | 49 | 120 | 0.0 | 6.0 | 0.00 | 0.06 | 0.01 | 92 | 1008.8 |
| 20260509142548 | 49 | 136 | 0.0 | 1.0 | 0.01 | 0.06 | 0.01 | 92 | 1008.8 |
| 20260509142048 | 48 | 119 | 0.0 | 1.0 | 0.01 | 0.06 | 0.01 | 92 | 1008.9 |
| 20260509141549 | 48 | 231 | 0.0 | 0.0 | 0.01 | 0.06 | 0.01 | 92 | 1009.0 |
| 20260509141045 | 48 | 238 | 0.0 | 0.0 | 0.01 | 0.06 | 0.01 | 92 | 1009.0 |
| 20260509140546 | 48 | 165 | 0.0 | 0.0 | 0.01 | 0.06 | 0.01 | 92 | 1009.1 |
| 20260509140045 | 48 | 165 | 0.0 | 0.0 | 0.01 | 0.06 | 0.01 | 92 | 1009.0 |
| 20260509135542 | 47 | 114 | 0.0 | 6.0 | 0.01 | 0.15 | 0.01 | 92 | 1009.1 |
| 20260509135041 | 47 | 138 | 0.0 | 6.0 | 0.01 | 0.15 | 0.01 | 92 | 1009.1 |
| 20260509134552 | 47 | 151 | 0.0 | 1.0 | 0.01 | 0.15 | 0.01 | 92 | 1009.1 |
| 20260509134045 | 47 | 158 | 0.0 | 0.0 | 0.01 | 0.15 | 0.01 | 92 | 1009.2 |
| 20260509133540 | 47 | 150 | 0.0 | 0.0 | 0.01 | 0.15 | 0.01 | 92 | 1009.2 |
| 20260509133042 | 47 | 227 | 0.0 | 1.0 | 0.01 | 0.15 | 0.01 | 92 | 1009.1 |
| 20260509132541 | 47 | 157 | 0.0 | 1.0 | 0.00 | 0.14 | 0.00 | 92 | 1009.1 |
| 20260509132042 | 47 | 207 | 0.0 | 6.0 | 0.00 | 0.14 | 0.00 | 92 | 1009.1 |
| 20260509131556 | 47 | 168 | 0.0 | 6.0 | 0.00 | 0.14 | 0.00 | 92 | 1009.1 |
| 20260509131037 | 47 | 164 | 0.0 | 3.0 | 0.00 | 0.14 | 0.00 | 92 | 1009.0 |
| 20260509130539 | 47 | 162 | 0.0 | 3.0 | 0.00 | 0.14 | 0.00 | 92 | 1009.0 |
| 20260509130049 | 46 | 133 | 0.0 | 3.0 | 0.00 | 0.14 | 0.00 | 92 | 1009.0 |
| 20260509125536 | 46 | 190 | 0.0 | 5.0 | 0.00 | 0.14 | 0.00 | 92 | 1008.9 |
| 20260509125034 | 46 | 167 | 0.0 | 7.0 | 0.00 | 0.14 | 0.00 | 92 | 1009.0 |
| 20260509124542 | 46 | 139 | 0.0 | 7.0 | 0.00 | 0.14 | 0.00 | 92 | 1009.1 |
| 20260509124034 | 46 | 247 | 0.0 | 7.0 | 0.00 | 0.14 | 0.00 | 91 | 1009.1 |
| 20260509123534 | 46 | 107 | 0.0 | 3.0 | 0.00 | 0.14 | 0.00 | 91 | 1009.1 |
| 20260509123037 | 46 | 178 | 0.0 | 3.0 | 0.00 | 0.14 | 0.00 | 91 | 1009.2 |
| 20260509122533 | 46 | 113 | 0.0 | 7.0 | 0.00 | 0.14 | 0.00 | 90 | 1009.2 |
| 20260509122034 | 46 | 144 | 0.0 | 6.0 | 0.00 | 0.14 | 0.00 | 90 | 1009.3 |
| 20260509121532 | 46 | 145 | 0.0 | 10.0 | 0.00 | 0.14 | 0.00 | 90 | 1009.3 |
| 20260509121032 | 46 | 162 | 0.0 | 8.0 | 0.00 | 0.14 | 0.00 | 89 | 1009.3 |
| 20260509120533 | 46 | 129 | 0.0 | 9.0 | 0.00 | 0.14 | 0.00 | 89 | 1009.2 |
| 20260509120034 | 46 | 167 | 0.0 | 7.0 | 0.00 | 0.14 | 0.00 | 88 | 1009.4 |
| 20260509115531 | 46 | 133 | 0.0 | 11.0 | 0.00 | 0.14 | 0.00 | 88 | 1009.5 |
| 20260509115027 | 46 | 140 | 0.0 | 11.0 | 0.00 | 0.14 | 0.00 | 88 | 1009.5 |
| 20260509114526 | 46 | 148 | 0.0 | 8.0 | 0.00 | 0.14 | 0.00 | 88 | 1009.6 |
| 20260509114025 | 46 | 136 | 0.0 | 8.0 | 0.00 | 0.14 | 0.00 | 88 | 1009.6 |
| 20260509113528 | 46 | 168 | 0.0 | 10.0 | 0.00 | 0.14 | 0.00 | 87 | 1009.4 |
| 20260509113024 | 46 | 103 | 0.0 | 10.0 | 0.00 | 0.14 | 0.00 | 87 | 1009.5 |
| 20260509112523 | 46 | 176 | 0.0 | 5.0 | 0.00 | 0.14 | 0.00 | 87 | 1009.5 |
| 20260509112023 | 46 | 167 | 0.0 | 5.0 | 0.00 | 0.14 | 0.00 | 87 | 1009.5 |
| 20260509111624 | 46 | 157 | 0.0 | 2.0 | 0.00 | 0.14 | 0.00 | 87 | 1009.4 |
| 20260509111023 | 46 | 255 | 0.0 | 4.0 | 0.00 | 0.14 | 0.00 | 87 | 1009.5 |
| 20260509110523 | 45 | 176 | 0.0 | 4.0 | 0.00 | 0.14 | 0.00 | 86 | 1009.4 |
| 20260509110025 | 45 | 158 | 0.0 | 5.0 | 0.00 | 0.14 | 0.00 | 86 | 1009.4 |
| 20260509105520 | 45 | 154 | 0.0 | 5.0 | 0.00 | 0.15 | 0.00 | 86 | 1009.6 |
| 20260509105024 | 45 | 161 | 0.0 | 6.0 | 0.00 | 0.15 | 0.00 | 85 | 1009.6 |
| 20260509104519 | 45 | 169 | 0.0 | 6.0 | 0.00 | 0.15 | 0.00 | 85 | 1009.4 |
| 20260509104018 | 45 | 176 | 0.0 | 4.0 | 0.00 | 0.15 | 0.00 | 84 | 1009.4 |
| 20260509103518 | 45 | 165 | 0.0 | 1.0 | 0.00 | 0.15 | 0.00 | 83 | 1009.4 |
| 20260509103022 | 45 | 148 | 0.0 | 5.0 | 0.00 | 0.15 | 0.00 | 83 | 1009.5 |
| 20260509102518 | 45 | 169 | 0.0 | 5.0 | 0.00 | 0.15 | 0.00 | 82 | 1009.5 |
| 20260509102017 | 45 | 130 | 0.0 | 0.0 | 0.00 | 0.15 | 0.00 | 81 | 1009.5 |
| 20260509101521 | 45 | 224 | 0.0 | 0.0 | 0.00 | 0.15 | 0.00 | 81 | 1009.4 |
| 20260509101016 | 45 | 152 | 0.0 | 1.0 | 0.00 | 0.15 | 0.00 | 81 | 1009.4 |
| 20260509100517 | 45 | 140 | 0.0 | 2.0 | 0.00 | 0.15 | 0.00 | 80 | 1009.3 |
| 20260509100117 | 45 | 148 | 0.0 | 2.0 | 0.00 | 0.15 | 0.00 | 80 | 1009.2 |
| 20260509095515 | 45 | 150 | 0.0 | 0.0 | 0.00 | 0.15 | 0.00 | 79 | 1009.2 |
| 20260509095014 | 45 | 154 | 0.0 | 0.0 | 0.00 | 0.15 | 0.00 | 79 | 1009.0 |
| 20260509094515 | 45 | 157 | 0.0 | 0.0 | 0.00 | 0.15 | 0.00 | 78 | 1009.1 |
| 20260509094014 | 45 | 146 | 0.0 | 1.0 | 0.00 | 0.15 | 0.00 | 77 | 1009.1 |
| 20260509093512 | 45 | 152 | 0.0 | 1.0 | 0.00 | 0.15 | 0.00 | 77 | 1009.2 |
| 20260509093019 | 45 | 138 | 0.0 | 0.0 | 0.00 | 0.15 | 0.00 | 76 | 1009.2 |
| 20260509092511 | 45 | 129 | 0.0 | 0.0 | 0.00 | 0.15 | 0.00 | 75 | 1009.2 |
| 20260509092010 | 45 | 138 | 0.0 | 1.0 | 0.00 | 0.15 | 0.00 | 75 | 1009.1 |
| 20260509091511 | 45 | 118 | 0.0 | 5.0 | 0.00 | 0.15 | 0.00 | 74 | 1009.3 |
| 20260509091009 | 45 | 157 | 0.0 | 5.0 | 0.00 | 0.15 | 0.00 | 73 | 1009.3 |
| 20260509090508 | 45 | 86 | 0.0 | 0.0 | 0.00 | 0.15 | 0.00 | 72 | 1009.4 |
| 20260509090007 | 45 | 114 | 0.0 | 0.0 | 0.00 | 0.15 | 0.00 | 71 | 1009.6 |
| 20260509085507 | 45 | 162 | 0.0 | 0.0 | 0.00 | 0.15 | 0.00 | 70 | 1009.7 |
| 20260509085003 | 45 | 112 | 0.0 | 0.0 | 0.00 | 0.15 | 0.00 | 70 | 1009.7 |
| 20260509084508 | 45 | 145 | 0.0 | 0.0 | 0.00 | 0.15 | 0.00 | 69 | 1009.9 |
| 20260509084002 | 45 | 161 | 0.0 | 0.0 | 0.00 | 0.15 | 0.00 | 68 | 1009.8 |
| 20260509083602 | 45 | 119 | 0.0 | 0.0 | 0.00 | 0.15 | 0.00 | 68 | 1009.9 |
| 20260509083100 | 45 | 120 | 0.0 | 0.0 | 0.00 | 0.15 | 0.00 | 67 | 1009.8 |
| 20260509082559 | 44 | 121 | 0.0 | 0.0 | 0.00 | 0.15 | 0.00 | 66 | 1009.9 |
| 20260509082059 | 44 | 112 | 0.0 | 0.0 | 0.00 | 0.15 | 0.00 | 65 | 1010.0 |
| 20260509081559 | 44 | 112 | 0.0 | 0.0 | 0.00 | 0.15 | 0.00 | 64 | 1010.0 |
| 20260509081058 | 44 | 176 | 0.0 | 0.0 | 0.00 | 0.15 | 0.00 | 64 | 1010.0 |
| 20260509080557 | 44 | 138 | 0.0 | 1.0 | 0.00 | 0.15 | 0.00 | 63 | 1010.1 |
| 20260509080058 | 44 | 100 | 0.0 | 0.0 | 0.00 | 0.15 | 0.00 | 64 | 1010.2 |
| 20260509075557 | 44 | 145 | 0.0 | 0.0 | 0.00 | 0.20 | 0.00 | 64 | 1010.2 |
| 20260509075056 | 44 | 126 | 0.0 | 1.0 | 0.00 | 0.20 | 0.00 | 64 | 1010.2 |
| 20260509074602 | 44 | 128 | 0.0 | 1.0 | 0.00 | 0.20 | 0.00 | 64 | 1010.2 |
| 20260509074057 | 44 | 114 | 0.0 | 0.0 | 0.00 | 0.20 | 0.00 | 64 | 1010.3 |
| 20260509073555 | 44 | 161 | 0.0 | 0.0 | 0.00 | 0.20 | 0.00 | 64 | 1010.3 |
| 20260509073055 | 44 | 132 | 0.0 | 0.0 | 0.00 | 0.20 | 0.00 | 64 | 1010.3 |
| 20260509072559 | 44 | 138 | 0.0 | 0.0 | 0.00 | 0.20 | 0.00 | 64 | 1010.2 |
| 20260509072056 | 44 | 159 | 0.0 | 0.0 | 0.00 | 0.20 | 0.00 | 64 | 1010.2 |
| 20260509071600 | 44 | 157 | 0.0 | 0.0 | 0.00 | 0.20 | 0.00 | 64 | 1010.2 |
| 20260509071055 | 44 | 122 | 0.0 | 0.0 | 0.00 | 0.20 | 0.00 | 65 | 1010.1 |
| 20260509070554 | 44 | 138 | 0.0 | 0.0 | 0.00 | 0.20 | 0.00 | 64 | 1010.1 |
| 20260509065552 | 44 | 131 | 0.0 | 0.0 | 0.00 | 0.23 | 0.00 | 63 | 1010.3 |
| 20260509065052 | 44 | 131 | 0.0 | 0.0 | 0.00 | 0.23 | 0.00 | 63 | 1010.4 |
| 20260509064554 | 44 | 126 | 0.0 | 0.0 | 0.00 | 0.23 | 0.00 | 63 | 1010.3 |
| 20260509064050 | 44 | 131 | 0.0 | 0.0 | 0.00 | 0.23 | 0.00 | 64 | 1010.3 |
| 20260509063551 | 44 | 131 | 0.0 | 0.0 | 0.00 | 0.23 | 0.00 | 67 | 1010.4 |
| 20260509063050 | 43 | 138 | 0.0 | 0.0 | 0.00 | 0.23 | 0.00 | 68 | 1010.5 |
| 20260509062549 | 44 | 110 | 0.0 | 0.0 | 0.00 | 0.23 | 0.00 | 67 | 1010.6 |
| 20260509062048 | 43 | 143 | 0.0 | 0.0 | 0.00 | 0.23 | 0.00 | 68 | 1010.6 |
| 20260509061553 | 43 | 117 | 0.0 | 0.0 | 0.00 | 0.23 | 0.00 | 69 | 1010.7 |
| 20260509061047 | 43 | 114 | 0.0 | 0.0 | 0.00 | 0.23 | 0.00 | 70 | 1010.8 |
| 20260509060546 | 43 | 114 | 0.0 | 0.0 | 0.00 | 0.23 | 0.00 | 70 | 1010.8 |
| 20260509060046 | 43 | 119 | 0.0 | 0.0 | 0.00 | 0.23 | 0.00 | 71 | 1010.9 |
| 20260509055545 | 43 | 128 | 0.0 | 0.0 | 0.00 | 0.23 | 0.00 | 70 | 1011.0 |
| 20260509055048 | 43 | 124 | 0.0 | 0.0 | 0.00 | 0.23 | 0.00 | 71 | 1011.1 |
| 20260509054604 | 43 | 133 | 0.0 | 0.0 | 0.00 | 0.23 | 0.00 | 71 | 1011.1 |
| 20260509054044 | 43 | 122 | 0.0 | 0.0 | 0.00 | 0.23 | 0.00 | 70 | 1011.1 |
| 20260509053542 | 44 | 121 | 0.0 | 0.0 | 0.00 | 0.23 | 0.00 | 69 | 1011.2 |
| 20260509053136 | 44 | 124 | 0.0 | 0.0 | 0.00 | 0.23 | 0.00 | 68 | 1011.3 |
| 20260509052543 | 44 | 116 | 0.0 | 0.0 | 0.00 | 0.23 | 0.00 | 68 | 1011.4 |
| 20260509052040 | 44 | 145 | 0.0 | 0.0 | 0.00 | 0.23 | 0.00 | 67 | 1011.4 |
| 20260509051547 | 44 | 128 | 0.0 | 0.0 | 0.00 | 0.23 | 0.00 | 66 | 1011.4 |
| 20260509051039 | 44 | 117 | 0.0 | 0.0 | 0.00 | 0.23 | 0.00 | 65 | 1011.5 |
| 20260509050539 | 45 | 124 | 0.0 | 0.0 | 0.00 | 0.23 | 0.00 | 65 | 1011.5 |
| 20260509050045 | 44 | 114 | 0.0 | 0.0 | 0.00 | 0.23 | 0.00 | 65 | 1011.6 |
| 20260509045536 | 44 | 140 | 0.0 | 0.0 | 0.00 | 0.23 | 0.00 | 65 | 1011.6 |
| 20260509045037 | 44 | 144 | 0.0 | 0.0 | 0.00 | 0.23 | 0.00 | 66 | 1011.6 |
| 20260509044534 | 44 | 134 | 0.0 | 0.0 | 0.00 | 0.23 | 0.00 | 67 | 1011.6 |
| 20260509044032 | 44 | 110 | 0.0 | 0.0 | 0.00 | 0.23 | 0.00 | 67 | 1011.6 |
| 20260509043532 | 43 | 114 | 0.0 | 0.0 | 0.00 | 0.23 | 0.00 | 68 | 1011.7 |
| 20260509043031 | 43 | 122 | 0.0 | 0.0 | 0.00 | 0.23 | 0.00 | 69 | 1011.7 |
| 20260509042531 | 43 | 126 | 0.0 | 0.0 | 0.00 | 0.23 | 0.00 | 70 | 1011.7 |
| 20260509042028 | 42 | 112 | 0.0 | 0.0 | 0.00 | 0.23 | 0.00 | 71 | 1011.6 |
| 20260509041527 | 42 | 116 | 0.0 | 0.0 | 0.00 | 0.23 | 0.00 | 72 | 1011.7 |
| 20260509041026 | 42 | 132 | 0.0 | 0.0 | 0.00 | 0.23 | 0.00 | 73 | 1011.7 |
| 20260509040525 | 42 | 155 | 0.0 | 0.0 | 0.00 | 0.23 | 0.00 | 73 | 1011.7 |
| 20260509040023 | 42 | 138 | 0.0 | 0.0 | 0.00 | 0.23 | 0.00 | 73 | 1011.7 |
| 20260509035526 | 42 | 138 | 0.0 | 0.0 | 0.00 | 0.23 | 0.23 | 72 | 1011.6 |
| 20260509035025 | 42 | 138 | 0.0 | 0.0 | 0.00 | 0.23 | 0.23 | 71 | 1011.7 |
| 20260509034523 | 42 | 140 | 0.0 | 0.0 | 0.00 | 0.23 | 0.23 | 72 | 1011.6 |
| 20260509034022 | 41 | 119 | 0.0 | 0.0 | 0.00 | 0.23 | 0.23 | 72 | 1011.7 |
| 20260509033522 | 42 | 128 | 0.0 | 0.0 | 0.00 | 0.23 | 0.23 | 71 | 1011.6 |
| 20260509033022 | 42 | 162 | 0.0 | 0.0 | 0.00 | 0.23 | 0.23 | 71 | 1011.6 |
| 20260509032522 | 42 | 114 | 0.0 | 0.0 | 0.00 | 0.23 | 0.23 | 72 | 1011.6 |
| 20260509032021 | 41 | 140 | 0.0 | 0.0 | 0.00 | 0.23 | 0.23 | 72 | 1011.6 |
| 20260509031521 | 41 | 145 | 0.0 | 0.0 | 0.00 | 0.23 | 0.23 | 73 | 1011.6 |
| 20260509031021 | 41 | 129 | 0.0 | 0.0 | 0.00 | 0.23 | 0.23 | 73 | 1011.7 |
| 20260509030521 | 41 | 143 | 0.0 | 0.0 | 0.00 | 0.23 | 0.23 | 73 | 1011.9 |
| 20260509030031 | 41 | 128 | 0.0 | 0.0 | 0.00 | 0.23 | 0.23 | 73 | 1011.8 |
| 20260509025521 | 41 | 129 | 0.0 | 0.0 | 0.00 | 0.23 | 0.23 | 73 | 1011.8 |
| 20260509025019 | 41 | 117 | 0.0 | 0.0 | 0.00 | 0.23 | 0.23 | 73 | 1011.9 |
| 20260509024520 | 42 | 141 | 0.0 | 0.0 | 0.00 | 0.23 | 0.23 | 73 | 1011.9 |
| 20260509024019 | 42 | 122 | 0.0 | 0.0 | 0.00 | 0.23 | 0.23 | 72 | 1011.9 |
| 20260509023519 | 42 | 121 | 0.0 | 1.0 | 0.00 | 0.23 | 0.23 | 73 | 1012.0 |
| 20260509023027 | 42 | 154 | 0.0 | 1.0 | 0.00 | 0.23 | 0.23 | 73 | 1012.0 |
| 20260509022523 | 42 | 135 | 0.0 | 0.0 | 0.00 | 0.23 | 0.23 | 73 | 1012.0 |
| 20260509022019 | 42 | 123 | 0.0 | 0.0 | 0.00 | 0.23 | 0.23 | 72 | 1012.0 |
| 20260509021519 | 42 | 132 | 0.0 | 0.0 | 0.00 | 0.23 | 0.23 | 71 | 1012.0 |
| 20260509021018 | 42 | 130 | 0.0 | 0.0 | 0.00 | 0.23 | 0.23 | 72 | 1012.0 |
| 20260509020520 | 41 | 130 | 0.0 | 0.0 | 0.00 | 0.23 | 0.23 | 74 | 1012.0 |
| 20260509020018 | 41 | 127 | 0.0 | 0.0 | 0.00 | 0.23 | 0.23 | 74 | 1012.0 |
| 20260509015518 | 41 | 138 | 0.0 | 0.0 | 0.00 | 0.23 | 0.23 | 73 | 1011.9 |
| 20260509015017 | 42 | 129 | 0.0 | 0.0 | 0.00 | 0.23 | 0.23 | 73 | 1011.8 |
| 20260509014517 | 42 | 135 | 0.0 | 0.0 | 0.00 | 0.23 | 0.23 | 73 | 1011.8 |
| 20260509014017 | 42 | 105 | 0.0 | 0.0 | 0.00 | 0.23 | 0.23 | 74 | 1011.8 |
| 20260509013517 | 41 | 103 | 0.0 | 0.0 | 0.00 | 0.23 | 0.23 | 75 | 1011.8 |
| 20260509013016 | 41 | 102 | 0.0 | 0.0 | 0.00 | 0.23 | 0.23 | 76 | 1011.6 |
| 20260509012516 | 41 | 102 | 0.0 | 0.0 | 0.00 | 0.23 | 0.23 | 74 | 1011.5 |
| 20260509012021 | 42 | 103 | 0.0 | 0.0 | 0.00 | 0.23 | 0.23 | 73 | 1011.4 |
| 20260509011516 | 42 | 102 | 0.0 | 0.0 | 0.00 | 0.23 | 0.23 | 71 | 1011.4 |
| 20260509011015 | 43 | 135 | 0.0 | 0.0 | 0.00 | 0.23 | 0.23 | 70 | 1011.3 |
| 20260509010515 | 43 | 134 | 0.0 | 0.0 | 0.00 | 0.23 | 0.23 | 68 | 1011.2 |
| 20260509010017 | 43 | 134 | 0.0 | 0.0 | 0.00 | 0.23 | 0.23 | 68 | 1011.2 |
| 20260509005517 | 44 | 135 | 0.0 | 0.0 | 0.00 | 0.23 | 0.23 | 68 | 1011.1 |
| 20260509005015 | 44 | 135 | 0.0 | 0.0 | 0.00 | 0.23 | 0.23 | 66 | 1011.1 |
| 20260509004515 | 45 | 134 | 0.0 | 0.0 | 0.00 | 0.23 | 0.23 | 65 | 1011.1 |
| 20260509004015 | 45 | 134 | 0.0 | 0.0 | 0.00 | 0.23 | 0.23 | 64 | 1011.0 |
| 20260509003514 | 46 | 134 | 0.0 | 0.0 | 0.00 | 0.23 | 0.23 | 62 | 1011.0 |
| 20260509003019 | 46 | 136 | 0.0 | 0.0 | 0.00 | 0.23 | 0.23 | 63 | 1010.8 |
| 20260509002514 | 46 | 137 | 0.0 | 0.0 | 0.00 | 0.23 | 0.23 | 63 | 1010.9 |
| 20260509002014 | 47 | 137 | 0.0 | 0.0 | 0.00 | 0.23 | 0.23 | 60 | 1010.8 |
| 20260509001514 | 48 | 214 | 0.0 | 0.0 | 0.00 | 0.23 | 0.23 | 58 | 1010.8 |
| 20260509001016 | 49 | 214 | 0.0 | 0.0 | 0.00 | 0.23 | 0.23 | 55 | 1010.8 |
| 20260509000519 | 49 | 214 | 0.0 | 0.0 | 0.00 | 0.23 | 0.23 | 53 | 1010.8 |
| 20260509000013 | 50 | 214 | 0.0 | 0.0 | 0.00 | 0.23 | 0.23 | 53 | 1010.7 |
| 20260508235514 | 51 | 214 | 0.0 | 0.0 | 0.00 | 0.23 | 0.23 | 52 | 1010.6 |
| 20260508235009 | 51 | 214 | 0.0 | 0.0 | 0.00 | 0.23 | 0.23 | 51 | 1010.6 |
| 20260508234508 | 51 | 215 | 0.0 | 0.0 | 0.00 | 0.23 | 0.23 | 51 | 1010.6 |
| 20260508234009 | 51 | 264 | 0.0 | 0.0 | 0.00 | 0.23 | 0.23 | 50 | 1010.6 |
| 20260508233510 | 51 | 278 | 0.0 | 0.0 | 0.00 | 0.23 | 0.23 | 50 | 1010.5 |
| 20260508233008 | 51 | 253 | 0.0 | 0.0 | 0.00 | 0.23 | 0.23 | 49 | 1010.5 |
| 20260508232508 | 51 | 280 | 0.0 | 0.0 | 0.00 | 0.23 | 0.23 | 50 | 1010.4 |
| 20260508232008 | 51 | 272 | 0.0 | 0.0 | 0.00 | 0.23 | 0.23 | 49 | 1010.4 |
| 20260508231508 | 51 | 272 | 0.0 | 0.0 | 0.00 | 0.23 | 0.23 | 49 | 1010.4 |
| 20260508231009 | 51 | 285 | 0.0 | 0.0 | 0.00 | 0.23 | 0.23 | 50 | 1010.3 |
| 20260508230508 | 51 | 293 | 0.0 | 0.0 | 0.00 | 0.23 | 0.23 | 49 | 1010.4 |
| 20260508230009 | 51 | 296 | 0.0 | 0.0 | 0.00 | 0.23 | 0.23 | 50 | 1010.4 |
| 20260508225510 | 51 | 278 | 0.0 | 0.0 | 0.00 | 0.23 | 0.23 | 50 | 1010.5 |
| 20260508225032 | 51 | 269 | 0.0 | 0.0 | 0.00 | 0.23 | 0.23 | 50 | 1010.4 |
| 20260508224531 | 51 | 287 | 0.0 | 0.0 | 0.00 | 0.23 | 0.23 | 49 | 1010.4 |
| 20260508224029 | 51 | 300 | 0.0 | 0.0 | 0.00 | 0.23 | 0.23 | 48 | 1010.4 |
| 20260508223528 | 51 | 323 | 0.0 | 0.0 | 0.00 | 0.23 | 0.23 | 48 | 1010.5 |
| 20260508223016 | 51 | 253 | 0.0 | 10.0 | 0.00 | 0.23 | 0.23 | 46 | 1010.5 |
| 20260508222534 | 52 | 299 | 1.0 | 10.0 | 0.00 | 0.23 | 0.23 | 47 | 1010.6 |
| 20260508222052 | 52 | 272 | 0.0 | 5.0 | 0.00 | 0.23 | 0.23 | 49 | 1010.6 |
| 20260508221508 | 52 | 305 | 0.0 | 0.0 | 0.00 | 0.23 | 0.23 | 48 | 1010.6 |
| 20260508221028 | 52 | 311 | 0.0 | 0.0 | 0.00 | 0.23 | 0.23 | 50 | 1010.6 |
| 20260508220540 | 52 | 127 | 0.0 | 0.0 | 0.00 | 0.23 | 0.23 | 50 | 1010.7 |
| 20260508220052 | 51 | 276 | 0.0 | 0.0 | 0.00 | 0.23 | 0.23 | 50 | 1010.7 |
| 20260508215610 | 51 | 264 | 0.0 | 0.0 | 0.00 | 0.23 | 0.23 | 51 | 1010.7 |
| 20260508215129 | 52 | 257 | 0.0 | 0.0 | 0.00 | 0.23 | 0.23 | 49 | 1010.8 |
| 20260508214546 | 52 | 312 | 0.0 | 3.0 | 0.00 | 0.23 | 0.23 | 51 | 1010.7 |
| 20260508214104 | 51 | 258 | 0.0 | 7.0 | 0.00 | 0.23 | 0.23 | 51 | 1010.8 |
| 20260508213624 | 51 | 255 | 1.0 | 7.0 | 0.00 | 0.23 | 0.23 | 50 | 1010.8 |
| 20260508213025 | 51 | 290 | 0.0 | 0.0 | 0.00 | 0.23 | 0.23 | 55 | 1010.8 |
| 20260508212544 | 50 | 279 | 0.0 | 0.0 | 0.00 | 0.23 | 0.23 | 54 | 1010.7 |
| 20260508212058 | 50 | 290 | 0.0 | 1.0 | 0.00 | 0.23 | 0.23 | 53 | 1010.7 |
| 20260508211608 | 50 | 251 | 0.0 | 4.0 | 0.00 | 0.23 | 0.23 | 53 | 1010.7 |
| 20260508211020 | 50 | 305 | 0.0 | 9.0 | 0.00 | 0.23 | 0.23 | 54 | 1010.9 |
| 20260508210536 | 50 | 309 | 1.0 | 9.0 | 0.00 | 0.23 | 0.23 | 54 | 1010.9 |
| 20260508210117 | 50 | 278 | 1.0 | 8.0 | 0.00 | 0.23 | 0.23 | 54 | 1010.9 |
| 20260508205514 | 50 | 357 | 0.0 | 4.0 | 0.00 | 0.23 | 0.23 | 56 | 1010.9 |
| 20260508205028 | 49 | 273 | 0.0 | 5.0 | 0.00 | 0.23 | 0.23 | 54 | 1011.0 |
| 20260508204602 | 49 | 258 | 0.0 | 9.0 | 0.00 | 0.23 | 0.23 | 55 | 1011.0 |
| 20260508204119 | 49 | 314 | 1.0 | 9.0 | 0.00 | 0.23 | 0.23 | 54 | 1011.0 |
| 20260508203503 | 49 | 259 | 0.0 | 0.0 | 0.00 | 0.23 | 0.23 | 59 | 1010.9 |
| 20260508203045 | 48 | 204 | 0.0 | 1.0 | 0.00 | 0.23 | 0.23 | 58 | 1011.0 |
| 20260508202550 | 48 | 255 | 0.0 | 4.0 | 0.00 | 0.23 | 0.23 | 58 | 1011.1 |
| 20260508202102 | 49 | 268 | 0.0 | 13.0 | 0.00 | 0.23 | 0.23 | 58 | 1011.2 |
| 20260508201508 | 49 | 303 | 5.0 | 13.0 | 0.01 | 0.23 | 0.23 | 56 | 1011.2 |
| 20260508201022 | 49 | 241 | 2.0 | 11.0 | 0.01 | 0.23 | 0.23 | 54 | 1011.2 |
| 20260508200539 | 49 | 290 | 0.0 | 7.0 | 0.01 | 0.23 | 0.23 | 61 | 1011.2 |
| 20260508200119 | 49 | 301 | 0.0 | 7.0 | 0.01 | 0.23 | 0.23 | 62 | 1011.3 |
| 20260508195512 | 49 | 285 | 0.0 | 3.0 | 0.01 | 0.23 | 0.23 | 63 | 1011.4 |
| 20260508194616 | 49 | 269 | 0.0 | 3.0 | 0.01 | 0.23 | 0.23 | 64 | 1011.5 |
| 20260508194030 | 49 | 251 | 0.0 | 8.0 | 0.01 | 0.23 | 0.23 | 67 | 1011.4 |
| 20260508193548 | 48 | 235 | 0.0 | 8.0 | 0.01 | 0.23 | 0.23 | 66 | 1011.4 |
| 20260508193010 | 48 | 241 | 0.0 | 9.0 | 0.01 | 0.23 | 0.23 | 65 | 1011.5 |
| 20260508192526 | 48 | 253 | 0.0 | 10.0 | 0.01 | 0.23 | 0.23 | 68 | 1011.6 |
| 20260508192044 | 47 | 258 | 0.0 | 7.0 | 0.01 | 0.23 | 0.23 | 68 | 1011.7 |
| 20260508191507 | 47 | 248 | 0.0 | 4.0 | 0.00 | 0.22 | 0.22 | 72 | 1011.7 |
| 20260508191022 | 46 | 237 | 0.0 | 5.0 | 0.00 | 0.22 | 0.22 | 72 | 1011.7 |
| 20260508190538 | 46 | 253 | 0.0 | 1.0 | 0.00 | 0.22 | 0.22 | 77 | 1011.7 |
| 20260508190047 | 45 | 275 | 0.0 | 0.0 | 0.00 | 0.22 | 0.22 | 74 | 1011.7 |
| 20260508185604 | 45 | 259 | 0.0 | 0.0 | 0.00 | 0.22 | 0.22 | 75 | 1011.7 |